User: anonymous   Login
Location: Unspecified
(0.0000°N, 0.0000°E)
Time: 09:20:20
(UTC+00:00)
Language:

PAYLOAD B - Orbit

View from above orbital plane
View from above orbital plane
View from above satellite
View from above satellite

Ground track
Ground track

The orbit data is extracted from the following two-line orbital elements,

1 27431U 02024B   17086.90668669 +.00000032 +00000-0 +44185-4 0  9998
2 27431 099.0204 058.8076 0014800 320.6783 039.3311 14.09620384764890
Epoch (UTC): 27 March 2017 21:45:37
Eccentricity: 0.0014800
inclination: 99.0204°
perigee height: 850 km
apogee height: 871 km
right ascension of ascending node: 58.8076°
argument of perigee: 320.6783°
revolutions per day: 14.09620384
mean anomaly at epoch: 39.3311°
orbit number at epoch: 76489

The dashed part of the orbit path shows where the satellite is in the earth's shadow,  

DLR